Weather History for Belize, Belize

Change the Weather History Date:

Monday, October 4, 2010

  Actual Average Record
Temperature  
Mean Temperature 80 °F -  
Max Temperature 88 °F 87 °F 91 °F (2007)
Min Temperature 73 °F 73 °F 73 °F (2001)
Cooling Degree Days 16    
Growing Degree Days 30 (Base 50)    
Moisture  
Dew Point 73 °F    
Average Humidity 77    
Maximum Humidity 94    
Minimum Humidity 50    
Precipitation  
Precipitation 0.04 in 0.32 in - ()
Sea Level Pressure  
Sea Level Pressure 29.98 in    
Wind  
Wind Speed 4 mph ()    
Max Wind Speed 10 mph    
Max Gust Speed -    
Visibility 8.6 miles    
Events Rain    
Averages and records for this station are not official NWS values.
T = Trace of Precipitation, MM = Missing Value Source: Averaged Metar Reports

Daily Weather History Graph

Daily Weather History Graph

Search for Another Location

Airport:

Trip Planner

Search our weather history database for the weather conditions in past years. The results will help you decide how hot, cold, wet, or windy it might be!

Date:

Astronomy

Oct. 04, 2010 Rise Set
Actual Time 5:44 AM CST 5:39 PM CST
Civil Twilight 5:22 AM CST 6:01 PM CST
Nautical Twilight 4:57 AM CST 6:26 PM CST
Astronomical Twilight 4:31 AM CST 6:51 PM CST
Moon 2:24 AM CST (10/4) 3:13 PM CST (10/4)
Length of Visible Light 12h 38m
Length of Day
11h 55m
Waning Crescent, 13% of the Moon is Illuminated
Oct 4
Waning Crescent
Oct 7
New
Oct 14
First Quarter
Oct 22
Full
Oct 30
Last Quarter

Hourly Weather History & Observations

Time (CST) Temp. Heat Index Dew Point Humidity Pressure Visibility Wind Dir Wind Speed Gust Speed Precip Events Conditions
12:00 AM 77 °F - 72 °F 82% 29.99 in 12 mi West 3.5 mph - -  
12:00 AM 77.0 °F - 73.4 °F 89% 29.98 in 6.2 mi West 3.5 mph - N/A   Mostly Cloudy
3:00 AM 74 °F - 72 °F 90% 29.95 in 12 mi Calm Calm - -   Scattered Clouds
3:00 AM 73.4 °F - 71.6 °F 94% 29.95 in 6.2 mi Calm Calm - N/A   Partly Cloudy
6:00 AM 73 °F - 70 °F 89% 29.99 in 12 mi West 4.6 mph - -  
6:00 AM 73.4 °F - 69.8 °F 88% 29.98 in 6.2 mi West 4.6 mph - N/A   Scattered Clouds
7:00 AM 75.2 °F - 71.6 °F 89% 30.01 in - West 5.8 mph - N/A   Clear
8:00 AM 77.0 °F - 71.6 °F 83% 30.01 in 6.2 mi West 8.1 mph - N/A   Partly Cloudy
9:00 AM 81 °F - 72 °F 68% 30.03 in 16 mi NNW 8.1 mph - -   Scattered Clouds
9:00 AM 80.6 °F 84.6 °F 71.6 °F 74% 30.01 in 6.2 mi NW 8.1 mph - N/A   Partly Cloudy
10:00 AM 84.2 °F 89.6 °F 71.6 °F 66% 30.02 in 6.2 mi NW 10.4 mph - N/A   Partly Cloudy
11:00 AM 86.0 °F 91.8 °F 71.6 °F 62% 30.00 in 6.2 mi NW 9.2 mph - N/A   Partly Cloudy
12:00 PM 87 °F - 71 °F 50% 29.98 in 16 mi NNW 6.9 mph - -  
12:00 PM 87.8 °F 93.8 °F 71.6 °F 58% 29.97 in 6.2 mi NNW 6.9 mph - N/A   Scattered Clouds
1:00 PM 89.6 °F 96.2 °F 71.6 °F 55% 29.94 in 6.2 mi WNW 9.2 mph - N/A   Scattered Clouds
2:00 PM 87.8 °F 93.8 °F 71.6 °F 58% 29.93 in 6.2 mi NNW 6.9 mph - N/A   Mostly Cloudy
3:00 PM 85 °F - 74 °F 62% 29.93 in 12 mi East 8.1 mph - -   Mostly Cloudy
3:00 PM 86.0 °F 93.4 °F 73.4 °F 66% 29.92 in 6.2 mi East 8.1 mph - N/A   Mostly Cloudy
4:00 PM 84.2 °F 94.1 °F 77.0 °F 79% 29.93 in 6.2 mi East 4.6 mph - N/A Rain Light Rain Showers
5:00 PM 80.6 °F 86.2 °F 75.2 °F 84% 29.94 in 6.2 mi Calm Calm - N/A   Mostly Cloudy
6:00 PM 80 °F - 77 °F 89% 29.96 in 12 mi Calm Calm - -   Partly Cloudy
6:00 PM 78.8 °F - 77.0 °F 94% 29.95 in 6.2 mi Calm Calm - N/A   Mostly Cloudy
9:00 PM 79 °F - 76 °F 86% 30.02 in 12 mi Calm Calm - -   Mostly Cloudy
9:00 PM 78.8 °F - 75.2 °F 89% 30.01 in 6.2 mi Calm Calm - N/A   Mostly Cloudy